Voltar ao catálogo

KSLV-II R/B

AtivoSSO
NORAD 56750·ROCKET BODY·🇰🇷 South Korea

Lançado May 25, 2023 de Naro Space Center

Loading…

Próximas Passagens (próximas 24 horas)

TLE

AtualizadoSource: Space-Track

Época: Sep 13, 2026, 14:01 UTC

1 56750U 23072H   26256.58466926  .00006153  00000-0  17796-3 0  9992
2 56750  97.4794 104.6732 0024291  10.3824 349.7916 15.35707471183959

Acompanhe KSLV-II R/B em tempo real com AllMySat

Download on the App Store